[[{"header":{"parameterUnit":"m.s-1","parameterCategory":1,"la1":30.2991,"la2":30.254,"lo1":-89.0895,"lo2":-89.0444,"dy":0.0017,"dx":0.0017,"nx":28,"ny":28,"refTime":"2024-02-02T09:00:00:Z","depth":0,"parameterNumber":2,"parameterNumberName":"U-component_of_WINDS"},"data":[0,0,0,0,0,0,0,0,0,0,0,0,0,0,0,0,0,0,0,0,0,0,0,0,0,0,0,0,0,0,0,0,0,0,0,0,0,0,0,0,0,0,0,0,0,0,0,0,0,0,0,0,0,0,0,0,0,0,-6.0437,-6.0435,0,-6.0239,-6.0237,-6.0235,-6.0005,-6.0002,-5.9998,-5.9995,-5.979,-5.9788,-5.9786,0,0,0,0,0,0,0,0,0,0,0,0,0,-6.0613,-6.0611,-6.0437,-6.0435,-6.0432,-6.024,-6.0237,-6.0234,-6.0006,-6.0001,-5.9997,-5.9993,-5.9791,-5.9788,-5.9786,0,0,0,0,0,0,0,0,0,0,0,0,0,-6.0489,-6.0611,-6.0437,-6.0295,-6.028,-6.024,-6.0237,-6.0234,-6.0007,-6.0001,-5.9996,-5.9991,-5.9792,-5.9789,-5.9785,-5.9869,0,0,-5.9775,-5.9774,0,0,0,0,0,0,0,0,-6.0496,-6.0482,-6.0318,-6.0305,-6.0288,-6.0142,-6.0224,-6.0111,-6.0008,-6.011,-5.9995,-5.9989,-5.9911,-5.9898,-5.9872,-5.986,-5.9851,-5.9775,-5.9773,-5.9771,-5.9771,0,0,0,0,0,0,0,-6.0505,-6.049,-6.0359,-6.0316,-6.0298,-6.024,-6.0216,-6.0202,-6.0042,-6.0101,-6.0084,-6.0064,-5.9902,-5.9876,-5.9866,-5.9848,-5.9775,-5.9772,-5.977,-5.9769,-5.9892,-5.9897,0,0,0,0,0,0,-6.0535,-6.0498,-6.0365,-6.0353,-6.0381,-6.0241,-6.0215,-6.0194,-6.0042,-6.0014,-6.0068,-6.0054,-5.9884,-5.987,-5.9858,-5.9943,-5.9772,-5.9768,-5.9767,-5.9887,-5.9893,-5.9899,0,0,0,0,0,0,-6.054,-6.0526,-6.0373,-6.0421,-6.0397,-6.0243,-6.0222,-6.0193,-6.0166,-6.0017,-5.9987,-6.0071,-5.9879,-5.9862,-5.9868,-5.9933,-5.9767,-5.9764,-5.9881,-5.9889,-5.9896,-6.0118,0,0,0,0,0,0,-6.0546,-6.0529,-6.056,-6.0423,-6.0395,-6.0388,-6.0226,-6.0193,-6.0161,-6.014,-6.0012,-5.9986,-5.9874,-5.9874,-5.9865,-5.9926,-5.9761,-5.9874,-5.9884,-5.9894,-6.0104,-6.0133,-6.0157,0,0,0,0,0,-6.0553,-6.063,-6.0562,-6.0547,-6.0431,-6.0392,-6.0376,-6.0246,-6.0168,-6.0197,-6.0101,-5.999,-5.9929,-5.9876,-5.9864,-5.9925,-5.9869,-5.9881,-5.9893,-6.0092,-6.0127,-6.0156,0,0,0,0,0,0,-6.0777,-6.0609,-6.0532,-6.0567,-6.0496,-6.0353,-6.0386,-6.0288,-6.0236,-6.0219,-6.006,-6.0033,-6.0057,-5.9991,-5.9936,-5.9997,-5.9882,-5.9893,-6.0039,-6.007,-6.0096,-6.011,-5.9759,0,0,0,0,0,-6.0831,-6.0814,-6.0668,-6.0713,-6.0681,-6.0541,-6.0519,-6.0426,-6.0345,-6.0313,-6.0217,-6.0142,-6.0105,-6.0085,-6.0043,-6.0095,-6.0062,-6.0131,-6.0157,-6.018,-6.0189,-6.0209,-6.0237,-5.9938,-5.9938,-5.9937,0,0,-6.094,-6.0847,-6.0846,-6.0756,-6.0689,-6.0674,-6.0516,-6.0508,-6.0494,-6.0311,-6.031,-6.0238,-6.0143,-6.0173,-6.018,-6.0119,-6.0265,-6.0195,-6.0214,-6.021,-6.0225,-6.0253,-6.0279,-5.9946,-5.9944,-5.9943,0,0,-6.1132,-6.1062,-6.109,-6.1027,-6.0929,-6.0835,-6.0842,-6.0715,-6.066,-6.0657,-6.0518,-6.0501,-6.0442,-6.0379,-6.034,-6.0511,-6.0405,-6.0502,-6.0638,-6.066,-6.0684,-6.0704,-6.0762,-6.0785,-6.0512,-6.0513,-6.0513,0,-6.1281,-6.1254,-6.1117,-6.1116,-6.108,-6.0915,-6.0942,-6.0887,-6.0781,-6.0759,-6.0692,-6.0614,-6.0539,-6.055,-6.0592,-6.0567,-6.0568,-6.0514,-6.0692,-6.0711,-6.0727,-6.0781,-6.0804,-6.0525,-6.0524,-6.0522,-6.0521,0,-6.144,-6.1424,-6.1459,-6.136,-6.1328,-6.1342,-6.1206,-6.119,-6.1101,-6.1014,-6.1012,-6.0917,-6.0852,-6.0849,-6.0761,-6.0847,-6.0812,-6.0722,-6.0602,-6.077,-6.0818,-6.0838,-6.0542,-6.0538,-6.0535,-6.0532,0,0,-6.1765,-6.1592,-6.1607,-6.1559,-6.144,-6.1423,-6.143,-6.1368,-6.1356,-6.1289,-6.1288,-6.1243,-6.1158,-6.1114,-6.1018,-6.1038,-6.1176,-6.0944,-6.0939,-6.0988,-6.1263,-6.1329,-6.1356,-6.1107,-6.1111,-6.1113,-6.127,0,-6.1933,-6.1934,-6.1811,-6.1845,-6.1827,-6.1671,-6.1676,-6.1603,-6.1523,-6.1495,-6.1405,-6.1375,-6.1267,-6.1239,-6.1252,-6.1157,-6.1229,-6.1144,-6.1103,-6.1103,-6.1128,-6.1381,-6.1451,-6.1603,-6.1288,-6.1291,-6.1293,0,-6.2128,-6.2073,-6.2106,-6.1984,-6.1972,-6.1979,-6.1911,-6.1888,-6.1802,-6.1741,-6.1694,-6.1585,-6.1581,-6.1471,-6.1462,-6.1408,-6.1384,-6.1335,-6.1338,-6.1326,-6.1206,-6.1373,-6.1648,-6.167,-6.1321,-6.1319,-6.1317,0,-6.2359,-6.2293,-6.2303,-6.2268,-6.2127,-6.2135,-6.2077,-6.1985,-6.1956,-6.1897,-6.1876,-6.1818,-6.1786,-6.1743,-6.1621,-6.1553,-6.1626,-6.1506,-6.1573,-6.1577,-6.1593,-6.1593,-6.1865,-6.1584,-6.1584,-6.1583,-6.1583,0,-6.2557,-6.2583,-6.2404,-6.2411,-6.2434,-6.2294,-6.2321,-6.2247,-6.2168,-6.2156,-6.2018,-6.201,-6.1851,-6.1824,-6.1729,-6.1735,-6.1722,-6.1672,-6.1646,-6.1682,-6.1689,-6.1662,-6.1647,-6.1589,-6.1588,-6.1587,-6.1586,0,-6.2816,-6.2699,-6.2699,-6.2567,-6.2534,-6.2557,-6.2443,-6.2442,-6.2355,-6.2342,-6.233,-6.2192,-6.2154,-6.2029,-6.196,-6.1895,-6.1929,-6.1882,-6.1959,-6.1941,-6.2014,-6.2008,-6.2276,-6.2303,-6.201,-6.2013,-6.2016,0,-6.2949,-6.2965,-6.2835,-6.2818,-6.2765,-6.274,-6.2709,-6.2572,-6.2545,-6.2448,-6.2459,-6.241,-6.2363,-6.231,-6.2202,-6.2148,-6.2096,-6.2194,-6.2086,-6.2122,-6.2093,-6.2092,-6.2092,-6.2216,-6.222,-6.2223,-6.2226,0,-6.3196,-6.3137,-6.3099,-6.304,-6.3008,-6.2955,-6.2893,-6.2887,-6.2733,-6.2711,-6.267,-6.2634,-6.2564,-6.2516,-6.2445,-6.2383,-6.2278,-6.2261,-6.2273,-6.2308,-6.2351,-6.2326,-6.2018,-6.2254,-6.2251,-6.2249,-6.2248,-6.2247,-6.3393,-6.34,-6.3309,-6.327,-6.3211,-6.3157,-6.315,-6.3062,-6.3026,-6.2958,-6.288,-6.2849,-6.2761,-6.2655,-6.2601,-6.2573,-6.2517,-6.2535,-6.2539,-6.2545,-6.2561,-6.236,-6.256,-6.2559,-6.2559,-6.2558,-6.2557,0,-6.363,-6.3565,-6.3531,-6.345,-6.342,-6.3327,-6.3254,-6.3235,-6.3209,-6.3137,-6.3094,-6.3048,-6.3001,-6.2891,-6.2834,-6.2833,-6.2783,-6.2822,-6.2818,-6.2805,-6.2617,-6.261,-6.2863,-6.2863,-6.2863,-6.2863,-6.2863,-6.2863,-6.375,-6.3755,-6.3686,-6.366,-6.3593,-6.3562,-6.3529,-6.3478,-6.3419,-6.3374,-6.3335,-6.3264,-6.3176,-6.3111,-6.3064,-6.3033,-6.3016,-6.3071,-6.3024,-6.2848,-6.2819,-6.2791,-6.2784,-6.3069,-6.307,-6.3214,-6.3215,-6.3216]},{"header":{"parameterUnit":"m.s-1","parameterCategory":1,"la1":30.2991,"la2":30.254,"lo1":-89.0895,"lo2":-89.0444,"dy":0.0017,"dx":0.0017,"nx":28,"ny":28,"refTime":"2024-02-02T09:00:00:Z","depth":0,"parameterNumber":3,"parameterNumberName":"V-component_of_WINDS"},"data":[0,0,0,0,0,0,0,0,0,0,0,0,0,0,0,0,0,0,0,0,0,0,0,0,0,0,0,0,0,0,0,0,0,0,0,0,0,0,0,0,0,0,0,0,0,0,0,0,0,0,0,0,0,0,0,0,0,0,1.2508,1.2507,0,1.2401,1.2399,1.2398,1.2333,1.2332,1.2332,1.2332,1.2219,1.2216,1.2214,0,0,0,0,0,0,0,0,0,0,0,0,0,1.2656,1.2653,1.2508,1.2507,1.2505,1.2401,1.2399,1.2398,1.2333,1.2332,1.2332,1.2331,1.222,1.2217,1.2213,0,0,0,0,0,0,0,0,0,0,0,0,0,1.2574,1.2653,1.2508,1.246,1.2455,1.2401,1.2399,1.2397,1.2333,1.2332,1.2332,1.2331,1.2221,1.2217,1.2213,1.2198,0,0,1.2201,1.2199,0,0,0,0,0,0,0,0,1.2579,1.2569,1.2469,1.2463,1.2457,1.238,1.241,1.233,1.2333,1.2379,1.2332,1.2331,1.2273,1.2264,1.2245,1.2193,1.2188,1.22,1.2198,1.2196,1.2195,0,0,0,0,0,0,0,1.2585,1.2573,1.2465,1.2467,1.246,1.2444,1.2432,1.2395,1.233,1.2375,1.237,1.2358,1.2269,1.2249,1.2242,1.2186,1.22,1.2197,1.2194,1.2193,1.2117,1.2118,0,0,0,0,0,0,1.2598,1.2578,1.2469,1.2462,1.2518,1.2442,1.2428,1.2405,1.233,1.2318,1.2359,1.2356,1.2256,1.2247,1.2238,1.2216,1.2196,1.2192,1.219,1.2117,1.2117,1.2118,0,0,0,0,0,0,1.2602,1.2589,1.2473,1.2519,1.2503,1.244,1.2414,1.2403,1.2383,1.2318,1.2306,1.235,1.2256,1.2244,1.2209,1.2211,1.2191,1.2187,1.2116,1.2117,1.2118,1.2172,0,0,0,0,0,0,1.2606,1.2591,1.2584,1.2519,1.2501,1.2446,1.2414,1.2401,1.2376,1.2371,1.2306,1.2295,1.2254,1.2215,1.2205,1.2205,1.2184,1.2116,1.2117,1.2117,1.217,1.2174,1.2178,0,0,0,0,0,1.2612,1.2603,1.2584,1.2571,1.2491,1.2447,1.2436,1.239,1.2377,1.237,1.2329,1.2297,1.2213,1.2212,1.22,1.2199,1.2116,1.2116,1.2117,1.2168,1.2173,1.2178,0,0,0,0,0,0,1.2668,1.2593,1.2572,1.2542,1.2501,1.2436,1.2425,1.2397,1.2358,1.2355,1.2299,1.2285,1.2256,1.2224,1.2225,1.2181,1.2161,1.2159,1.2203,1.2208,1.2212,1.222,1.218,0,0,0,0,0,1.2677,1.2648,1.2584,1.2563,1.2544,1.2489,1.2467,1.2436,1.2391,1.2373,1.2329,1.2286,1.225,1.2227,1.219,1.2165,1.215,1.2159,1.2163,1.2167,1.2166,1.2152,1.2155,1.2121,1.2121,1.2121,0,0,1.2695,1.2651,1.2635,1.2574,1.2538,1.2509,1.2474,1.2444,1.2422,1.2368,1.2333,1.23,1.2248,1.2219,1.2203,1.2191,1.2173,1.2168,1.2172,1.2169,1.2153,1.2156,1.2159,1.2122,1.2122,1.2121,0,0,1.2713,1.2676,1.2656,1.2622,1.257,1.2534,1.2529,1.2468,1.2445,1.2409,1.2369,1.2341,1.228,1.2246,1.222,1.2229,1.2199,1.2218,1.224,1.2227,1.223,1.2232,1.2235,1.2237,1.2218,1.2218,1.2218,0,1.2742,1.2696,1.2649,1.2622,1.2596,1.2549,1.2528,1.2497,1.2435,1.2419,1.2406,1.233,1.2292,1.2254,1.2257,1.2238,1.2231,1.2224,1.2233,1.2235,1.2236,1.2239,1.224,1.222,1.222,1.222,1.222,0,1.2735,1.2704,1.2694,1.2637,1.2611,1.2587,1.2536,1.2515,1.2486,1.2452,1.2417,1.237,1.2323,1.2312,1.2283,1.2271,1.2265,1.2244,1.2222,1.2243,1.2244,1.2245,1.2224,1.2223,1.2222,1.2222,0,0,1.2783,1.2703,1.27,1.2674,1.2615,1.259,1.2565,1.2521,1.2504,1.2464,1.2441,1.2392,1.2372,1.2344,1.2311,1.2299,1.231,1.2279,1.2277,1.2287,1.2294,1.2311,1.2313,1.229,1.229,1.229,1.2299,0,1.2792,1.2745,1.2703,1.2671,1.2642,1.2598,1.2576,1.2537,1.2505,1.2476,1.2439,1.2405,1.2382,1.2365,1.2351,1.2311,1.2311,1.231,1.2268,1.2268,1.2282,1.2313,1.233,1.234,1.2299,1.2299,1.2299,0,1.2796,1.2759,1.2725,1.2671,1.2657,1.2638,1.2595,1.2568,1.2524,1.2501,1.2471,1.2437,1.2408,1.239,1.235,1.2351,1.2332,1.231,1.2309,1.2303,1.2284,1.2308,1.2342,1.2344,1.23,1.23,1.23,0,1.2835,1.2778,1.275,1.273,1.2665,1.2653,1.2625,1.258,1.2557,1.252,1.2505,1.2464,1.2442,1.2412,1.2368,1.2359,1.2333,1.2311,1.2313,1.2314,1.2308,1.2309,1.234,1.2297,1.2297,1.2297,1.2297,0,1.285,1.2831,1.2767,1.275,1.2728,1.268,1.266,1.2628,1.2589,1.2565,1.2524,1.2502,1.2446,1.2418,1.2383,1.2356,1.2346,1.2327,1.2318,1.233,1.2333,1.2316,1.2314,1.2297,1.2297,1.2297,1.2297,0,1.2889,1.2846,1.2813,1.2756,1.2741,1.2727,1.2678,1.266,1.2626,1.2596,1.2586,1.2533,1.2498,1.2452,1.2401,1.2378,1.2355,1.2341,1.2371,1.2365,1.237,1.237,1.2391,1.2392,1.2349,1.2349,1.2349,0,1.2901,1.2886,1.2828,1.2809,1.2784,1.2754,1.2731,1.2685,1.2662,1.2612,1.26,1.2562,1.2529,1.2476,1.2432,1.2394,1.2378,1.2388,1.2372,1.2386,1.2379,1.238,1.2379,1.2392,1.2393,1.2393,1.2394,0,1.2927,1.2907,1.2876,1.2838,1.2813,1.278,1.2745,1.2733,1.2679,1.2656,1.2621,1.2595,1.2546,1.2509,1.2465,1.2436,1.2406,1.24,1.2398,1.241,1.2428,1.2419,1.2382,1.2399,1.2399,1.2398,1.2398,1.2398,1.2953,1.2938,1.2896,1.2863,1.2833,1.2802,1.2783,1.2748,1.2718,1.2674,1.2648,1.2614,1.2572,1.2511,1.2483,1.2456,1.2444,1.2441,1.2441,1.2441,1.2445,1.2434,1.2448,1.2447,1.2447,1.2447,1.2447,0,1.2978,1.2949,1.2919,1.2873,1.2848,1.2824,1.2785,1.2765,1.2736,1.27,1.2669,1.2629,1.2594,1.2548,1.251,1.2496,1.2482,1.2488,1.2488,1.2482,1.2458,1.2463,1.25,1.25,1.25,1.25,1.25,1.25,1.2987,1.2961,1.2937,1.2895,1.2866,1.2833,1.2813,1.2785,1.2756,1.2714,1.2685,1.2656,1.2616,1.2575,1.2541,1.2529,1.2516,1.2527,1.251,1.2488,1.2484,1.2479,1.2484,1.2525,1.2525,1.2537,1.2537,1.2537]}]]